Regional Weather Roundup
Issued by NWS Little Rock, AR

Home | Current Version | Previous Version | Text Only | Print | Product List | Glossary On
Versions: 1 2 3 4 5 6 7 8 9 10 11 12 13 14 15 16 17 18 19 20 21 22 23 24 25 26 27 28 29 30 31 32 33 34 35 36 37 38 39 40 41 42 43 44 45 46 47 48 49 50
000
ASUS44 KLZK 260005
RWRLZK

WEATHER ROUNDUP FOR ARKANSAS
NATIONAL WEATHER SERVICE LITTLE ROCK AR
700 PM CDT SAT MAR 25 2017

NOTE: "FAIR" INDICATES FEW OR NO CLOUDS BELOW 12,000 FEET WITH NO
SIGNIFICANT WEATHER AND/OR OBSTRUCTIONS TO VISIBILITY.

ARZ001-003-010-029-260100-
NORTHWEST ARKANSAS

CITY           SKY/WX    TMP DP  RH WIND       PRES   REMARKS
FAYETTEVILLE   CLOUDY    47  46  97 SW5       29.93R FOG
6HR MIN TEMP:  47; 6HR MAX TEMP:  49; 6HR PCP:  0.01;

FORT SMITH     CLOUDY    54  45  71 NW7       29.93S
6HR MIN TEMP:  53; 6HR MAX TEMP:  56;

HARRISON       CLOUDY    50  45  83 W8        29.90S
6HR MIN TEMP:  50; 6HR MAX TEMP:  58;

BENTONVILLE    CLOUDY    46  43  87 W8        29.92S
6HR MIN TEMP:  46; 6HR MAX TEMP:  48;

ROGERS         CLOUDY    47  44  90 W9        29.92R
6HR MIN TEMP:  47; 6HR MAX TEMP:  49; 6HR PCP: TRACE;

SILOAM SPGS    CLOUDY    46  43  87 W9        29.92S
6HR MIN TEMP:  46; 6HR MAX TEMP:  50;

HIGHFILL       CLOUDY    48  46  93 SW7       29.92R
6HR MIN TEMP:  47; 6HR MAX TEMP:  50; 6HR PCP:  0.01;

SPRINGDALE     CLOUDY    46  46 100 W6        29.94R
$$

ARZ004-005-016-260100-
NORTH CENTRAL ARKANSAS

CITY           SKY/WX    TMP DP  RH WIND       PRES   REMARKS
BATESVILLE     PTCLDY    61  46  59 SW9       29.89R
6HR MIN TEMP:  61; 6HR MAX TEMP:  68;

FLIPPIN        CLOUDY    55  43  62 W10       29.87R
6HR MIN TEMP:  55; 6HR MAX TEMP:  63; 6HR PCP:  0.03;

MTN HOME       CLOUDY    53  47  79 NW9       29.88R
6HR MIN TEMP:  53; 6HR MAX TEMP:  62; 6HR PCP:  0.03;

$$

ARZ040-041-260100-
WEST CENTRAL ARKANSAS

CITY           SKY/WX    TMP DP  RH WIND       PRES   REMARKS
MENA           PTCLDY    64  52  63 W7        29.91R
MOUNT IDA      PTCLDY    63  50  62 NW3       29.88R
6HR MIN TEMP:  63; 6HR MAX TEMP:  70;

$$

ARZ009-017-025-026-028-260100-
NORTHEAST ARKANSAS

CITY           SKY/WX    TMP DP  RH WIND       PRES   REMARKS
JONESBORO      PTCLDY    63  50  62 SW9       29.87R
6HR MIN TEMP:  63; 6HR MAX TEMP:  70; 6HR PCP:  0.02;

NEWPORT        CLOUDY    64  52  64 W13       29.88R
6HR MIN TEMP:  64; 6HR MAX TEMP:  70;

WALNUT RIDGE   MOCLDY    64  48  55 SW14      29.86R
6HR MIN TEMP:  63; 6HR MAX TEMP:  70;

BLYTHEVILLE    MOCLDY    63  59  87 S10       29.87R
6HR MIN TEMP:  61; 6HR MAX TEMP:  69; 6HR PCP:  0.10;

$$

ARZ022-023-033-042-044-260100-
CENTRAL ARKANSAS

CITY           SKY/WX    TMP DP  RH WIND       PRES   REMARKS
LITTLE ROCK    MOCLDY    62  53  72 N13       29.89R
6HR MIN TEMP:  62; 6HR MAX TEMP:  72;

N LITTLE ROCK    N/A     59  51  74 NW6       29.90R
6HR MIN TEMP:  59; 6HR MAX TEMP:  70;

JACKSONVILLE   CLOUDY    62  51  68 W10       29.90R
6HR MIN TEMP:  62; 6HR MAX TEMP:  71;

CONWAY           N/A     59  50  72 NW9G17    29.90R
HOT SPRINGS    PTCLDY    66  50  56 W6        29.89R
6HR MIN TEMP:  64; 6HR MAX TEMP:  71;

RUSSELLVILLE   CLEAR     55  46  71 NW8       29.92R
6HR MIN TEMP:  55; 6HR MAX TEMP:  62;

CLINTON        FAIR      57  48  72 SW10G16   29.91R
$$

ARZ036-260100-
EAST ARKANSAS

CITY           SKY/WX    TMP DP  RH WIND       PRES   REMARKS
WEST MEMPHIS   PTCLDY    66  60  81 S14       29.87R
6HR MIN TEMP:  65; 6HR MAX TEMP:  69; 6HR PCP: TRACE;

$$

ARZ050-053-066-070-073-260100-
SOUTHWEST ARKANSAS

CITY           SKY/WX    TMP DP  RH WIND       PRES   REMARKS
ARKADELPHIA    FAIR      68  54  60 SW7       29.90R
6HR MIN TEMP:  65; 6HR MAX TEMP:  70;

CAMDEN         PTCLDY    68  48  49 SW5       29.90R
TEXARKANA      PTCLDY    68  49  50 W9        29.90R
6HR MIN TEMP:  65; 6HR MAX TEMP:  71;

EL DORADO      CLEAR     69  50  50 W6        29.90R
6HR MIN TEMP:  69; 6HR MAX TEMP:  73;

DE QUEEN       PTCLDY    66  52  60 W7        29.88R
6HR MIN TEMP:  63; 6HR MAX TEMP:  69;

$$

ARZ056-057-069-260100-
SOUTHEAST ARKANSAS

CITY           SKY/WX    TMP DP  RH WIND       PRES   REMARKS
PINE BLUFF     PTCLDY    69  50  50 SW5       29.89R
6HR MIN TEMP:  69; 6HR MAX TEMP:  72;

STUTTGART      MOCLDY    66  48  52 SW9       29.89R
6HR MIN TEMP:  66; 6HR MAX TEMP:  72;

MONTICELLO       N/A     70  50  49 W3        29.89R
6HR MIN TEMP:  70; 6HR MAX TEMP:  80;


$$





USA.gov is the U.S. government's official web portal to all federal, state and local government web resources and services.